Location: Chantarel
(45.1638°N, 1.7873°E)
Time: 14:31:07
(UTC+00:00)

USA 305 - Pass Details

Date: 03 March 2021
Orbit: 564 x 577 km, 54.0° (Epoch: 10 April)

Event Time Altitude Azimuth Distance (km) Brightness Sun altitude
Rises 18:03:21 0° 272° (W) 2,782 9.1 -4.4°
Reaches altitude 10° 18:05:49 10° 283° (WNW) 1,883 7.1 -4.8°
Maximum altitude 18:09:37 30° 345° (NNW) 1,043 4.4 -5.5°
Drops below altitude 10° 18:13:25 10° 48° (NE) 1,879 5.1 -6.2°
Enters shadow 18:14:51 - 55° (NE) 2,389 5.5 -6.4°
